www.pogodaiklimat.ru

Погода и климат >> Архив погоды >> Бразилия >> Пиауи >> Флориано


ПОГОДА в Флориано

  • Прогноз погоды в Флориано
  • Монитор погоды в Флориано

АРХИВ ПОГОДЫ в Флориано

Время (UTC), дата Ветер
(напр.,м/с)
 
Видим.   Явления Облачность Т
(С)
Тd
(С)
f
(%)
Тe
(С)
Тes
(С)
Комфортность P
(гПа)
Po
(гПа)
Тmin
(С)
Tmax
(С)
R
(мм)
R24
(мм)
S
(см)
07 18.05 штиль 0
{1}
н/о н/о +23.4 +22.1 92 +32 +32 очень
душно
1011.4 996.8
08 18.05 штиль 0
{1}
н/о н/о +23.3 +22.0 92 +32 +32 очень
душно
1011.9 997.3
09 18.05 штиль 0
{1}
н/о н/о +23.4 +22.2 93 +32 +32 очень
душно
1012.6 998.0
10 18.05 штиль 0 н/о н/о +23.7 +22.5 93 +31 +31 очень
душно
1013.3 998.7
11 18.05 ЮВ 1
{1}
н/о н/о +24.5 +23.1 92 +33 +33 очень
душно
1014.1 999.5
12 18.05 штиль 0
{1}
н/о н/о +26.4 +23.5 84 +36 +36 очень
душно
1014.6 1000.1
13 18.05 СВ 1
{2}
н/о н/о +29.7 +23.8 71 +41 +41 опасность
перегрева
1014.2 999.8
14 18.05 В 1
{3}
н/о н/о +30.8 +22.5 61 +40 +40 очень
душно
1013.4 999.1
15 18.05 В 1
{3}
н/о н/о +31.1 +22.4 60 +40 +40 очень
душно
1012.4 998.1
16 18.05 В 1
{3}
н/о н/о +30.9 +22.2 60 +40 +40 очень
душно
1011.3 997.0
17 18.05 В 2
{3}
н/о н/о +32.3 +21.3 52 +40 +40 очень
душно
1010.0 995.8
18 18.05 В 1
{3}
н/о н/о +31.6 +21.8 56 +40 +40 очень
душно
1009.2 995.0 0.2
19 18.05 ЮВ 1
{3}
н/о н/о +32.1 +21.3 53 +40 +40 очень
душно
1008.9 994.7
20 18.05 В 1
{2}
н/о н/о +31.1 +22.5 60 +40 +40 очень
душно
1009.0 994.8
21 18.05 штиль 0
{1}
н/о н/о +29.6 +22.9 67 +39 +39 очень
душно
1009.4 995.1
22 18.05 штиль 0
{1}
н/о н/о +27.5 +23.9 81 +38 +38 очень
душно
1010.1 995.7
23 18.05 штиль 0 н/о н/о +26.4 +23.9 86 +36 +36 очень
душно
1011.0 996.5
00 19.05 штиль 0 н/о н/о +25.7 +23.6 88 +35 +35 очень
душно
1011.7 997.2
01 19.05 штиль 0
{1}
н/о н/о +25.4 +23.6 90 +35 +35 очень
душно
1011.9 997.4
02 19.05 штиль 0
{1}
н/о н/о +25.6 +23.7 89 +35 +35 очень
душно
1012.1 997.6 0.2
03 19.05 штиль 0
{1}
н/о н/о +25.4 +23.7 90 +35 +35 очень
душно
1011.7 997.2
04 19.05 штиль 0
{1}
н/о н/о +25.0 +23.4 91 +34 +34 очень
душно
1011.6 997.0
05 19.05 штиль 0
{1}
н/о н/о +25.0 +23.3 90 +33 +33 очень
душно
1010.9 996.4
06 19.05 штиль 0
{1}
н/о н/о +24.9 +23.3 91 +33 +33 очень
душно
1010.7 996.2
07 19.05 штиль 0 н/о н/о +25.1 +23.4 90 +34 +34 очень
душно
1010.6 996.1
08 19.05 штиль 0
{1}
н/о н/о +24.8 +23.1 90 +33 +33 очень
душно
1010.9 996.3
09 19.05 штиль 0
{1}
н/о н/о +25.0 +23.0 89 +33 +33 очень
душно
1011.2 996.7
10 19.05 штиль 0 н/о н/о +25.0 +23.1 89 +33 +33 очень
душно
1012.1 997.5 0.2
11 19.05 штиль 0
{1}
н/о н/о +25.3 +23.2 88 +34 +34 очень
душно
1013.3 998.7
12 19.05 ЮВ 1
{1}
н/о н/о +26.1 +23.1 84 +35 +35 очень
душно
1013.8 999.3
13 19.05 штиль 0
{1}
н/о н/о +27.2 +23.7 81 +37 +37 очень
душно
1013.9 999.4
14 19.05 ЮВ 1
{2}
н/о н/о +28.3 +23.3 74 +38 +38 очень
душно
1013.5 999.1
15 19.05 ЮВ 2
{3}
н/о н/о +29.2 +22.7 68 +39 +39 очень
душно
1012.3 997.9
16 19.05 В 1
{3}
н/о н/о +30.3 +22.7 64 +40 +40 очень
душно
1011.3 997.0 0.2
17 19.05 ЮВ 2
{3}
н/о н/о +30.7 +22.6 62 +40 +40 очень
душно
1010.4 996.1
18 19.05 ЮВ 1
{3}
н/о н/о +30.5 +22.3 62 +40 +40 очень
душно
1010.0 995.7
19 19.05 штиль 0
{2}
н/о н/о +29.7 +23.3 69 +40 +40 очень
душно
1009.8 995.5 0.2
20 19.05 Ю 1
{1}
н/о н/о +28.8 +23.9 75 +40 +40 очень
душно
1010.3 995.9
21 19.05 З 1
{1}
н/о н/о +28.0 +23.8 78 +39 +39 очень
душно
1010.7 996.3
22 19.05 З 1
{1}
н/о н/о +27.4 +23.8 81 +38 +38 очень
душно
1011.1 996.7
23 19.05 штиль 0
{1}
н/о н/о +26.6 +24.1 86 +37 +37 очень
душно
1011.5 997.0
00 20.05 З 1
{1}
н/о н/о +26.4 +23.9 86 +36 +36 очень
душно
1012.0 997.5
01 20.05 штиль 0
{1}
н/о н/о +25.6 +23.6 89 +35 +35 очень
душно
1012.1 997.6
02 20.05 штиль 0
{1}
н/о н/о +25.1 +23.4 90 +34 +34 очень
душно
1012.2 997.6 0.2
03 20.05 штиль 0 н/о н/о +24.7 +23.1 91 +33 +33 очень
душно
1012.4 997.8
04 20.05 штиль 0
{1}
н/о н/о +24.4 +22.9 91 +32 +32 очень
душно
1011.9 997.3
05 20.05 штиль 0
{1}
н/о н/о +24.4 +23.0 92 +32 +32 очень
душно
1011.4 996.8
06 20.05 штиль 0
{1}
н/о н/о +24.3 +23.0 92 +32 +32 очень
душно
1011.0 996.4
07 20.05 штиль 0
{1}
н/о н/о +23.9 +22.6 92 +31 +31 очень
душно
1010.8 996.2
08 20.05 штиль 0
{1}
н/о н/о +24.0 +22.7 92 +31 +31 очень
душно
1011.2 996.6
09 20.05 штиль 0
{1}
н/о н/о +24.1 +22.8 92 +32 +32 очень
душно
1011.7 997.1 0.2
10 20.05 ЮВ 1
{2}
н/о н/о +24.4 +23.1 92 +32 +32 очень
душно
1012.8 998.2
11 20.05 В 1
{3}
н/о н/о +27.0 +24.5 86 +38 +38 очень
душно
1013.5 999.0
12 20.05 СВ 1
{3}
н/о н/о +28.2 +23.0 73 +38 +38 очень
душно
1013.9 999.5
13 20.05 В 1
{2}
н/о н/о +30.0 +23.0 66 +40 +40 очень
душно
1013.6 999.3
14 20.05 В 1
{3}
н/о н/о +31.3 +22.2 59 +40 +40 очень
душно
1013.2 998.9
15 20.05 ЮВ 1
{3}
н/о н/о +31.0 +21.9 58 +39 +39 очень
душно
1012.6 998.3
16 20.05 В 1
{3}
н/о н/о +31.8 +21.6 55 +40 +40 очень
душно
1011.5 997.3 0.2
17 20.05 Ю 2
{4}
н/о н/о +30.9 +21.3 57 +39 +39 очень
душно
1010.7 996.4
18 20.05 ЮВ 1
{4}
н/о н/о +30.9 +21.3 57 +39 +39 очень
душно
1009.9 995.7
19 20.05 ЮВ 1
{3}
н/о н/о +31.2 +21.8 57 +40 +40 очень
душно
1009.5 995.3
20 20.05 В 1
{3}
н/о н/о +30.8 +21.7 58 +39 +39 очень
душно
1009.3 995.1 0.2
21 20.05 штиль 0
{2}
н/о н/о +29.0 +23.0 70 +39 +39 очень
душно
1009.7 995.4
22 20.05 Ю 1
{1}
н/о н/о +27.8 +23.1 76 +37 +37 очень
душно
1010.4 996.0
23 20.05 штиль 0
{1}
н/о н/о +26.1 +23.4 85 +35 +35 очень
душно
1010.9 996.4 0.2
00 21.05 штиль 0
{1}
н/о н/о +25.8 +23.1 85 +34 +34 очень
душно
1011.5 997.0
01 21.05 ЮЗ 1
{1}
н/о н/о +25.6 +22.9 85 +34 +34 очень
душно
1011.8 997.3
02 21.05 штиль 0
{1}
н/о н/о +25.0 +23.0 89 +33 +33 очень
душно
1011.9 997.3
03 21.05 штиль 0
{1}
н/о н/о +24.5 +22.6 89 +32 +32 очень
душно
1011.9 997.3
04 21.05 штиль 0
{1}
н/о н/о +23.8 +22.1 90 +31 +31 очень
душно
1011.6 997.0 0.2
05 21.05 штиль 0 н/о н/о +23.5 +22.0 91 +30 +30 очень
душно
1011.1 996.5
06 21.05 штиль 0
{1}
н/о н/о +23.5 +22.1 92 +30 +30 очень
душно
1010.6 996.0
07 21.05 штиль 0
{1}
н/о н/о +23.1 +21.8 92 +31 +31 очень
душно
1010.5 995.9 0.2
08 21.05 штиль 0
{2}
н/о н/о +22.9 +21.5 92 +31 +31 очень
душно
1011.1 996.5
09 21.05 штиль 0
{1}
н/о н/о +22.5 +21.2 92 +30 +30 очень
душно
1012.1 997.4
10 21.05 штиль 0
{1}
н/о н/о +23.6 +22.2 92 +31 +31 очень
душно
1012.5 997.9 0.4
11 21.05 штиль 0
{1}
н/о н/о +26.0 +22.5 81 +34 +34 очень
душно
1013.1 998.6
12 21.05 ЮВ 1
{3}
н/о н/о +28.4 +21.3 65 +36 +36 очень
душно
1013.5 999.1
13 21.05 В 2
{4}
н/о н/о +29.6 +20.3 57 +36 +36 очень
душно
1013.6 999.2
14 21.05 ЮВ 2
{4}
н/о н/о +30.6 +21.0 57 +38 +38 очень
душно
1013.1 998.8 0.2
15 21.05 В 2
{4}
н/о н/о +31.4 +20.8 53 +38 +38 очень
душно
1012.4 998.1
16 21.05 ЮВ 2
{4}
н/о н/о +32.7 +20.9 50 +40 +40 очень
душно
1011.6 997.4
17 21.05 В 1
{3}
н/о н/о +32.4 +21.2 52 +40 +40 очень
душно
1010.8 996.6
18 21.05 В 2
{3}
н/о н/о +32.4 +20.6 50 +39 +39 очень
душно
1009.9 995.7 0.2
19 21.05 ЮВ 1
{3}
н/о н/о +32.0 +20.8 52 +39 +39 очень
душно
1009.3 995.1
20 21.05 Ю 1
{2}
н/о н/о +31.3 +21.7 57 +40 +40 очень
душно
1009.4 995.2
21 21.05 ЮВ 1
{1}
н/о н/о +30.1 +22.5 64 +39 +39 очень
душно
1009.8 995.5
22 21.05 штиль 0
{1}
н/о н/о +28.5 +24.2 78 +40 +40 очень
душно
1010.4 996.0
23 21.05 штиль 0
{1}
н/о н/о +28.1 +24.0 78 +39 +39 очень
душно
1010.9 996.5
00 22.05 штиль 0 н/о н/о +27.7 +24.2 81 +39 +39 очень
душно
1011.3 996.9 0.2
01 22.05 З 1
{2}
н/о н/о +27.4 +22.7 76 +36 +36 очень
душно
1011.4 997.0
02 22.05 В 1
{1}
н/о н/о +26.9 +23.7 83 +37 +37 очень
душно
1011.8 997.3
03 22.05 штиль 0
{1}
н/о н/о +26.6 +23.8 85 +37 +37 очень
душно
1011.9 997.4
04 22.05 штиль 0
{1}
н/о н/о +26.3 +23.8 86 +36 +36 очень
душно
1011.9 997.4 0.2
05 22.05 В 1
{2}
н/о н/о +26.0 +23.2 85 +35 +35 очень
душно
1011.2 996.7
06 22.05 штиль 0
{1}
н/о н/о +25.5 +23.3 88 +34 +34 очень
душно
1010.8 996.3
07 22.05 штиль 0
{2}
н/о н/о +25.8 +23.3 86 +35 +35 очень
душно
1010.7 996.2 0.2
08 22.05 штиль 0
{1}
н/о н/о +25.8 +22.6 83 +34 +34 очень
душно
1011.4 996.9
09 22.05 штиль 0
{1}
н/о н/о +25.4 +22.6 85 +33 +33 очень
душно
1012.1 997.6
10 22.05 штиль 0 н/о н/о +25.8 +23.6 88 +35 +35 очень
душно
1013.0 998.5
11 22.05 штиль 0
{1}
н/о н/о +26.8 +23.4 82 +36 +36 очень
душно
1014.0 999.5
12 22.05 В 1
{1}
н/о н/о +28.1 +23.1 74 +38 +38 очень
душно
1014.4 1000.0 0.2
13 22.05 В 1
{3}
н/о н/о +29.4 +22.0 64 +38 +38 очень
душно
1014.5 1000.1
14 22.05 ЮВ 2
{4}
н/о н/о +29.8 +22.0 63 +38 +38 очень
душно
1014.2 999.8
15 22.05 В 1
{3}
н/о н/о +31.6 +21.2 54 +39 +39 очень
душно
1013.2 998.9
16 22.05 В 2
{3}
н/о н/о +31.2 +21.1 55 +39 +39 очень
душно
1012.2 997.9
17 22.05 В 2
{4}
н/о н/о +31.6 +21.1 54 +39 +39 очень
душно
1011.1 996.9
18 22.05 В 2
{4}
н/о н/о +31.8 +20.5 51 +39 +39 очень
душно
1010.1 995.9
19 22.05 ЮВ 1
{3}
н/о н/о +32.1 +20.9 52 +40 +40 очень
душно
1009.6 995.4
20 22.05 ЮВ 1
{3}
н/о н/о +31.4 +20.9 54 +39 +39 очень
душно
1009.5 995.3
21 22.05 ЮВ 1
{2}
н/о н/о +29.6 +21.3 61 +37 +37 очень
душно
1009.8 995.5 0.2
22 22.05 штиль 0
{1}
н/о н/о +27.4 +22.7 76 +36 +36 очень
душно
1010.6 996.2
23 22.05 штиль 0 н/о н/о +26.0 +22.9 83 +35 +35 очень
душно
1011.2 996.7
00 23.05 штиль 0 н/о н/о +26.2 +22.5 80 +34 +34 очень
душно
1011.5 997.0
01 23.05 штиль 0 н/о н/о +25.1 +22.8 87 +33 +33 очень
душно
1012.1 997.5
02 23.05 В 1
{1}
н/о н/о +24.8 +22.5 87 +32 +32 очень
душно
1012.4 997.8
03 23.05 штиль 0
{1}
н/о н/о +24.8 +22.2 85 +32 +32 очень
душно
1012.3 997.7
04 23.05 В 1
{1}
н/о н/о +24.1 +22.0 88 +31 +31 очень
душно
1012.3 997.7
05 23.05 ЮВ 1
{2}
н/о н/о +24.8 +22.1 85 +32 +32 очень
душно
1012.3 997.7
06 23.05 штиль 0
{1}
н/о н/о +24.0 +21.8 88 +31 +31 очень
душно
1011.9 997.3
07 23.05 штиль 0 н/о н/о +23.7 +21.9 90 +31 +31 очень
душно
1011.7 997.1
08 23.05 штиль 0 н/о н/о +23.6 +22.0 91 +30 +30 очень
душно
1012.1 997.5
09 23.05 штиль 0
{1}
н/о н/о +23.8 +22.2 91 +31 +31 очень
душно
1012.5 997.9
10 23.05 штиль 0
{1}
н/о н/о +24.4 +21.9 86 +31 +31 очень
душно
1013.3 998.7
11 23.05 штиль 0
{1}
н/о н/о +25.5 +22.2 82 +33 +33 очень
душно
1014.3 999.7
12 23.05 штиль 0
{1}
н/о н/о +27.4 +22.7 76 +36 +36 очень
душно
1014.6 1000.1
13 23.05 штиль 0
{1}
н/о н/о +28.1 +22.9 73 +37 +37 очень
душно
1014.4 1000.0
14 23.05 ЮВ 1
{2}
н/о н/о +30.4 +22.5 63 +40 +40 очень
душно
1013.9 999.6
15 23.05 ЮВ 1
{3}
н/о н/о +31.5 +22.2 58 +41 +41 опасность
перегрева
1013.0 998.7 0.2
16 23.05 ЮВ 1
{3}
н/о н/о +32.5 +21.8 53 +41 +41 опасность
перегрева
1011.8 997.6
17 23.05 ЮВ 2
{3}
н/о н/о +31.8 +20.9 53 +39 +39 очень
душно
1011.0 996.8
18 23.05 ЮВ 1
{3}
н/о н/о +33.5 +21.5 50 +42 +42 опасность
перегрева
1010.3 996.2
19 23.05 В 1
{3}
н/о н/о +32.4 +20.8 50 +39 +39 очень
душно
1010.2 996.0
20 23.05 ЮВ 1
{3}
н/о н/о +32.1 +21.1 52 +40 +40 очень
душно
1010.1 995.9
21 23.05 Ю 1
{1}
н/о н/о +30.1 +22.3 63 +39 +39 очень
душно
1010.3 996.0
22 23.05 штиль 0
{1}
н/о н/о +27.9 +22.9 74 +37 +37 очень
душно
1010.5 996.1
23 23.05 штиль 0 н/о н/о +26.3 +23.4 84 +36 +36 очень
душно
1011.0 996.5
00 24.05 штиль 0
{1}
н/о н/о +25.2 +23.1 88 +34 +34 очень
душно
1011.4 996.9
01 24.05 штиль 0
{1}
н/о н/о +25.0 +22.8 88 +33 +33 очень
душно
1011.9 997.3
02 24.05 штиль 0
{1}
н/о н/о +24.3 +22.4 89 +32 +32 очень
душно
1011.8 997.2
03 24.05 штиль 0 н/о н/о +23.8 +22.1 90 +31 +31 очень
душно
1011.8 997.2
04 24.05 штиль 0
{1}
н/о н/о +23.3 +21.7 91 +32 +32 очень
душно
1011.6 997.0
05 24.05 штиль 0
{1}
н/о н/о +23.0 +21.5 91 +31 +31 очень
душно
1011.3 996.7
06 24.05 штиль 0
{1}
н/о н/о +23.1 +21.6 91 +31 +31 очень
душно
1011.2 996.6
07 24.05 штиль 0
{1}
н/о н/о +23.0 +21.6 92 +31 +31 очень
душно
1011.4 996.8
08 24.05 Ю 1
{1}
н/о н/о +23.2 +21.7 91 +31 +31 очень
душно
1011.9 997.3
09 24.05 Ю 1
{2}
н/о н/о +23.0 +21.4 91 +31 +31 очень
душно
1012.7 998.0
10 24.05 Ю 1
{2}
н/о н/о +23.5 +21.2 87 +30 +30 очень
душно
1013.4 998.7 0.2
11 24.05 штиль 0
{2}
н/о н/о +26.0 +22.1 79 +34 +34 очень
душно
1014.2 999.7
12 24.05 С 1
{1}
н/о н/о +28.4 +22.6 71 +38 +38 очень
душно
1014.6 1000.2
13 24.05 СВ 1
{2}
н/о н/о +30.6 +22.0 60 +39 +39 очень
душно
1014.2 999.9
14 24.05 В 1
{2}
н/о н/о +32.3 +21.3 52 +40 +40 очень
душно
1013.5 999.3
15 24.05 В 1
{3}
н/о н/о +33.2 +19.9 46 +39 +39 очень
душно
1012.8 998.6
16 24.05 В 1
{4}
н/о н/о +33.8 +19.9 44 +40 +40 очень
душно
1011.8 997.7
17 24.05 В 1
{3}
н/о н/о +33.3 +19.5 44 +39 +39 очень
душно
1011.0 996.8
18 24.05 ЮВ 1
{3}
н/о н/о +33.2 +20.2 46 +39 +39 очень
душно
1010.4 996.3
19 24.05 ЮВ 1
{3}
н/о н/о +33.1 +19.5 45 +39 +39 очень
душно
1010.3 996.1
20 24.05 ЮВ 1
{2}
н/о н/о +32.5 +20.1 48 +39 +39 очень
душно
1010.4 996.2
21 24.05 Ю 1
{2}
н/о н/о +30.5 +21.0 57 +38 +38 очень
душно
1010.6 996.3
22 24.05 штиль 0
{1}
н/о н/о +26.7 +22.7 79 +35 +35 очень
душно
1011.1 996.6
23 24.05 штиль 0 н/о н/о +25.7 +22.8 84 +34 +34 очень
душно
1011.1 996.6
00 25.05 штиль 0
{1}
н/о н/о +24.8 +22.2 85 +32 +32 очень
душно
1011.6 997.0
01 25.05 штиль 0 н/о н/о +24.3 +22.1 88 +32 +32 очень
душно
1012.2 997.6
02 25.05 штиль 0 н/о н/о +23.8 +21.9 89 +31 +31 очень
душно
1012.3 997.7
03 25.05 штиль 0 н/о н/о +23.6 +21.7 89 +30 +30 очень
душно
1012.0 997.4
04 25.05 штиль 0 н/о н/о +23.5 +21.7 90 +30 +30 очень
душно
1012.0 997.4
05 25.05 штиль 0
{1}
н/о н/о +22.9 +21.3 91 +30 +30 очень
душно
1011.7 997.0
06 25.05 штиль 0
{1}
н/о н/о +23.0 +21.4 91 +31 +31 очень
душно
1011.7 997.0

 

Местоположение метеостанции Флориано (Пиауи, Бразилия): широта -6.77 долгота -43.02 высота над уровнем моря 125 м.

В архиве по умолчанию представлена погода в Флориано за последнюю неделю. Архивные данные за месяц целиком и за предыдущие месяцы, начиная с января 2011 года, Вы можете получить, выбрав интересующий диапазон дат из раскрывающегося списка и нажав кнопку "Ввод!".


*Определитесь, кто Вы:
робот инопланетянин человек

Внимание! Время в таблицах - всемирное. Для получения местного времени необходимо прибавить поправку, которая равна -3 ч.

Смотрите также архив погоды в соседних городах и на ближайших метеорологических станциях:

Погода в Флориано (Пиауи, Бразилия) (1 км)
Погода в Оэйраше (Пиауи, Бразилия) (99 км)
Погода в Сан-Педро-ду-Пьяуи (Пиауи, Бразилия) (100 км)
Погода в Валенса-ду-Пиауи (Пиауи, Бразилия) (148 км)
Погода в Колинасе (Мараньян, Бразилия) (157 км)
Погода в Урукуи (Пиауи, Бразилия) (166 км)
Погода в Пикусе (Пиауи, Бразилия) (173 км)
Погода в Пики (Пиауи, Бразилия) (182 км)
Погода в Терезине (Пиауи, Бразилия) (193 км)
Погода в Терезине (Пиауи, Бразилия) (194 км)

Пояснения к столбцам:

Ветер - указаны скорость ветра в м/с - средняя за 10 мин, порывы в срок и между сроками (в фигурных скобках) и направление, откуда дует ветер: С - северный, СВ - северо-восточный, В - восточный, ЮВ - юго-восточный, Ю - южный, ЮЗ - юго-западный, З - западный, СЗ - северо-западный.
Видимость - горизонтальная дальность видимости в метрах или километрах. При видимости от 1 до 10 км при отсутствии осадков обычно наблюдается дымка, при ухудшении видимости до 1 км и менее - туман. В сухую погоду видимость может ухудшаться дымом, пылью или мглою.
Явления - указаны атмосферные явления, наблюдавшиеся в срок или в последний час перед сроком; фигурными скобками обозначены явления, наблюдавшиеся между сроками (за 1-3 часа до срока); квадратными скобками обозначены град или гололедные отложения с указанием их диаметра в мм.
Облачность - указаны через наклонную черту общая и нижняя облачность в баллах и высота нижней границы облаков в метрах; квадратными скобками обозначены формы облаков: Ci - перистые, Cs - перисто-слоистые, Cc - перисто-кучевые, Ac - высококучевые, As - высокослоистые, Sc - слоисто-кучевые, Ns - слоисто-дождевые, Cu - кучевые, Cb - кучево-дождевые. Подробнее классификацию облаков см. в Атласе облаков (PDF).
T - Температура воздуха - температура, измеренная на высоте 2 м над землей.
Td - Температура точки росы - температура, при понижении до которой содержащийся в воздухе водяной пар достигнет насыщения.
f - Относительная влажность воздуха - влажноcть воздуха, измеренная на высоте 2 м над землей.
Te - Эффективная температура - температура, которую ощущает одетый по сезону человек в тени. Характеристика душности погоды. При расчете учитывается влияние влажности воздуха и скорости ветра на теплоощущения человека.
Tes - Эффективная температура на солнце - температура, которую ощущает человек, с поправкой на солнечный нагрев. Характеристика знойности погоды. Зависит от высоты солнца над горизонтом, облачности и скорости ветра. Ночью, в пасмурную погоду, а также при ветре 12 м/с и более поправка равна нулю.
P - Атмосферное давление - приведенное к уровню моря атмосферное давление.
Po - Атмосферное давление - измеренное на уровне метеостанции атмосферное давление.
Tmin - Минимальная температура - минимум температуры воздуха на высоте 2 м над землей.
Tmax - Максимальная температура - максимум температуры воздуха на высоте 2 м над землей.
R - Количество осадков - Количество выпавших осадков за период времени, мм. При наведении курсора мыши на число - период времени, за который выпало указанное количество осадков.
R24 - Количество осадков - Количество выпавших осадков за 24 часа, мм.
S - Снежный покров - Высота снежного покрова, см. При наведении курсора мыши на число - состояние снежного покрова и степень покрытия местности в баллах.